STARLINK-1953

decayed
NORAD ID: 47554 Int'l Des: 2021-009 Owner: SPXS Country: US Constellation: starlink
LEOCIRCULAR
グループ

STARLINK-1953について

説明を読み込み中...

高度履歴

Altitude vs Time

uPlot chart will show altitude changes over time

軌道要素

1 47554U 21009G 25068.59415453 .12363957 12436-4 87064-3 0 9998
2 47554 53.0321 183.3129 0007547 302.8094 158.4593 16.40181792226898
Epoch: Mar 9, 2025 • Age: 4325 hours

現在のステータス

Position data unavailable
打ち上げ日 Feb 4, 2021
運用期間 4.5 years
落下予定日 Mar 9, 2025
タイプ internet

技術仕様

分類 Payload
質量 260.00 kg
乾燥質量 248.00 kg
総質量 260.00 kg
長さ 0.20 m
直径 2.80 m
スパン 9.00 m
形状 Box + pan
製造者 SPXS
バスタイプ Starlink
フェーズステータス Unknown Transfer Status
所有者/国 SPXS/US

大規模コンステレーション

Loading constellations...